Sacramento, CA

6:40 PM PDT on July 25, 2016 (GMT -0700)
Sacramento International

Weather History for KSMF - October, 2013

Change the Weather History Date:

Friday, October 11, 2013

  Actual Average Record
Temperature  
Mean Temperature 60 °F -  
Max Temperature 75 °F 79 °F 96 °F (1991)
Min Temperature 44 °F 51 °F 39 °F (1998)
Degree Days  
Heating Degree Days 6    
Growing Degree Days 10 (Base 50)    
Moisture  
Dew Point 46 °F    
Average Humidity 63    
Maximum Humidity 90    
Minimum Humidity 31    
Precipitation  
Precipitation 0.00 in - - ()
Sea Level Pressure  
Sea Level Pressure 30.00 in    
Wind  
Wind Speed 5 mph (South)    
Max Wind Speed 9 mph    
Max Gust Speed -    
Visibility 10 miles    
Events      
Averages and records for this station are not official NWS values.
T = Trace of Precipitation, MM = Missing Value Source: NWS Daily Summary

Daily Weather History Graph

Daily Weather History Graph

Search for Another Location

Airport or City:

Trip Planner

Search our weather history database for the weather conditions in past years. The results will help you decide how hot, cold, wet, or windy it might be!

Date:

Astronomy

Oct. 11, 2013 Rise Set
Actual Time 7:12 AM PDT 6:33 PM PDT
Civil Twilight 6:45 AM PDT 6:59 PM PDT
Nautical Twilight 6:14 AM PDT 7:30 PM PDT
Astronomical Twilight 5:43 AM PDT 8:01 PM PDT
Moon 1:56 PM PDT (10/11) No Moon Set
Length of Visible Light 12h 14m
Length of Day
11h 21m
Waxing Crescent, 48% of the Moon is Illuminated
Oct 11
Waxing Crescent
Oct 11
First Quarter
Oct 18
Full
Oct 26
Last Quarter
Nov 3
New

Hourly Weather History & Observations

Time (PDT) Temp. Windchill Dew Point Humidity Pressure Visibility Wind Dir Wind Speed Gust Speed Precip Events Conditions
12:53 AM 54.0 °F - 46.9 °F 77% 29.98 in 10.0 mi SE 5.8 mph - N/A   Clear
1:53 AM 53.1 °F - 46.9 °F 80% 29.99 in 10.0 mi SE 5.8 mph - N/A   Clear
2:53 AM 54.0 °F - 48.0 °F 80% 29.99 in 10.0 mi SSE 9.2 mph - N/A   Clear
3:53 AM 53.1 °F - 46.9 °F 80% 30.00 in 10.0 mi SE 4.6 mph - N/A   Clear
4:53 AM 53.1 °F - 46.9 °F 80% 30.01 in 10.0 mi SE 3.5 mph - N/A   Clear
5:53 AM 44.1 °F - 39.9 °F 85% 30.02 in 10.0 mi Calm Calm - N/A   Clear
6:53 AM 45.0 °F - 42.1 °F 90% 30.03 in 9.0 mi Calm Calm - N/A   Clear
7:53 AM 45.0 °F 43.5 °F 42.1 °F 90% 30.05 in 8.0 mi NNE 3.5 mph - N/A   Clear
8:53 AM 53.1 °F - 48.0 °F 83% 30.06 in 10.0 mi Calm Calm - N/A   Clear
9:53 AM 55.9 °F - 48.0 °F 75% 30.07 in 8.0 mi NW 3.5 mph - N/A   Clear
10:53 AM 61.0 °F - 48.9 °F 64% 30.06 in 8.0 mi Calm Calm - N/A   Clear
11:53 AM 64.9 °F - 48.9 °F 56% 30.05 in 8.0 mi Variable 3.5 mph - N/A   Clear
12:53 PM 69.1 °F - 46.0 °F 44% 30.03 in 10.0 mi Calm Calm - N/A   Clear
1:53 PM 72.0 °F - 46.0 °F 40% 30.01 in 10.0 mi West 5.8 mph - N/A   Partly Cloudy
2:53 PM 73.9 °F - 44.1 °F 34% 29.99 in 10.0 mi SSW 6.9 mph - N/A   Partly Cloudy
3:53 PM 75.0 °F - 43.0 °F 32% 29.98 in 10.0 mi West 3.5 mph - N/A   Scattered Clouds
4:53 PM 75.0 °F - 42.1 °F 31% 29.96 in 10.0 mi SW 4.6 mph - N/A   Partly Cloudy
5:53 PM 72.0 °F - 42.1 °F 34% 29.94 in 10.0 mi South 4.6 mph - N/A   Partly Cloudy
6:53 PM 71.1 °F - 44.1 °F 38% 29.95 in 10.0 mi South 6.9 mph - N/A   Mostly Cloudy
7:53 PM 68.0 °F - 44.1 °F 42% 29.95 in 10.0 mi South 6.9 mph - N/A   Mostly Cloudy
8:53 PM 62.1 °F - 46.9 °F 58% 29.95 in 10.0 mi South 6.9 mph - N/A   Scattered Clouds
9:53 PM 59.0 °F - 48.0 °F 67% 29.96 in 10.0 mi SSW 5.8 mph - N/A   Clear
10:53 PM 57.0 °F - 48.0 °F 72% 29.97 in 10.0 mi South 5.8 mph - N/A   Clear
11:53 PM 55.0 °F - 46.0 °F 72% 29.96 in 10.0 mi SSE 5.8 mph - N/A   Clear